DW7955 Weather Reports


time (UTC)temp
C
wind
direction
speed
KPH
gust
KPH
rain 1hr
cm
rain 24hr
cm
rain mn
cm
humidity
%
barometer
mb
20260905143021 21 311 3.2 6.4 0.00 0.00 0.00 55 1005.1
20260905141514 20 267 1.6 4.8 0.00 0.00 0.00 56 1005.2
20260905140013 19 351 0.0 4.8 0.00 0.00 0.00 57 1005.4
20260905134509 18 7 0.0 3.2 0.00 0.00 0.00 60 1005.3
20260905133010 17 1 1.6 6.4 0.00 0.00 0.00 60 1005.2
20260905131508 17 1 0.0 6.4 0.00 0.00 0.00 63 1005.1
20260905130004 17 351 6.4 9.7 0.00 0.00 0.00 69 1004.8
20260905124502 17 325 0.0 0.0 0.00 0.00 0.00 74 1004.6
20260905123109 17 325 0.0 0.0 0.00 0.00 0.00 72 1004.3
20260905121556 18 325 0.0 0.0 0.00 0.00 0.00 71 1004.2
20260905120053 18 325 0.0 1.6 0.00 0.00 0.00 71 1004.3
20260905114553 18 325 0.0 6.4 0.00 0.00 0.00 71 1004.3
20260905113100 18 321 3.2 6.4 0.00 0.00 0.00 70 1004.3
20260905111557 18 1 3.2 8.0 0.00 0.00 0.00 71 1004.3
20260905110050 18 324 0.0 0.0 0.00 0.00 0.00 70 1004.3
20260905104549 19 351 3.2 9.7 0.00 0.00 0.00 70 1004.4
20260905103047 19 11 4.8 11.3 0.00 0.00 0.00 69 1004.2
20260905101554 19 18 9.7 14.5 0.00 0.00 0.00 67 1004.2
20260905100043 20 351 9.7 17.7 0.00 0.00 0.00 66 1004.1
20260905094541 20 7 9.7 19.3 0.00 0.00 0.00 64 1004.2
20260905093040 20 17 9.7 19.3 0.00 0.00 0.00 62 1004.2
20260905091539 20 17 9.7 17.7 0.00 0.00 0.00 61 1004.1
20260905090037 20 22 11.3 19.3 0.00 0.00 0.00 59 1004.0
20260905084556 20 12 8.0 17.7 0.00 0.00 0.00 58 1004.0
20260905083030 20 7 6.4 11.3 0.00 0.00 0.00 56 1004.0
20260905081528 21 34 6.4 12.9 0.00 0.00 0.00 55 1004.1
20260905080025 21 347 4.8 9.7 0.00 0.00 0.00 54 1004.0
20260905074525 21 351 6.4 11.3 0.00 0.00 0.00 53 1003.9
20260905073023 21 24 4.8 11.3 0.00 0.00 0.00 53 1003.9
20260905071524 21 41 8.0 11.3 0.00 0.00 0.00 53 1003.9
20260905070019 21 5 4.8 8.0 0.00 0.00 0.00 51 1003.8
20260905064518 21 7 4.8 9.7 0.00 0.00 0.00 51 1003.7
20260905063015 21 25 3.2 6.4 0.00 0.00 0.00 49 1003.6
20260905061514 22 11 0.0 6.4 0.00 0.00 0.00 48 1003.4
20260905060010 22 9 8.0 11.3 0.00 0.00 0.00 46 1003.2
20260905054512 23 20 8.0 16.1 0.00 0.00 0.00 44 1003.1
20260905053009 23 41 11.3 19.3 0.00 0.00 0.00 42 1003.1
20260905051511 23 13 6.4 12.9 0.00 0.00 0.00 41 1003.1
20260905050007 24 18 6.4 12.9 0.00 0.00 0.00 40 1003.0
20260905044508 24 29 9.7 12.9 0.00 0.00 0.00 41 1002.9
20260905043007 24 30 8.0 12.9 0.00 0.00 0.00 40 1003.1
20260905041506 25 35 9.7 12.9 0.00 0.00 0.00 40 1002.9
20260905040005 25 26 8.0 12.9 0.00 0.00 0.00 39 1002.8
20260905034511 26 35 6.4 12.9 0.00 0.00 0.00 36 1002.8
20260905033005 27 55 4.8 6.4 0.00 0.00 0.00 35 1002.8
20260905031505 27 76 0.0 6.4 0.00 0.00 0.00 36 1002.8
20260905030013 26 154 3.2 12.9 0.00 0.00 0.00 36 1003.0
20260905024504 26 53 0.0 3.2 0.00 0.00 0.00 38 1002.9
20260905023009 26 195 0.0 1.6 0.00 0.00 0.00 37 1002.4
20260905021505 27 195 0.0 3.2 0.00 0.00 0.00 37 1001.8
20260905020002 27 195 1.6 9.7 0.00 0.00 0.00 37 1001.6
20260905014501 27 224 4.8 8.0 0.00 0.00 0.00 36 1001.7
20260905013001 28 233 3.2 14.5 0.00 0.00 0.00 35 1001.6
20260905011603 28 235 4.8 12.9 0.00 0.00 0.00 31 1001.5
20260905010105 29 188 6.4 19.3 0.00 0.00 0.00 28 1001.3
20260905004603 30 169 4.8 17.7 0.00 0.00 0.00 25 1001.1
20260905003059 31 167 11.3 24.1 0.00 0.00 0.00 25 1000.9
20260905001559 31 201 14.5 25.7 0.00 0.00 0.00 27 1001.1
20260905000058 31 180 14.5 32.2 0.00 0.00 0.00 27 1001.0
20260904234557 33 132 14.5 32.2 0.00 0.00 0.00 22 1001.1
20260904233103 33 181 12.9 25.7 0.00 0.00 0.00 22 1001.1
20260904231556 32 155 8.0 22.5 0.00 0.00 0.00 23 1001.0
20260904230055 32 81 8.0 17.7 0.00 0.00 0.00 22 1000.9
20260904224554 33 45 11.3 24.1 0.00 0.00 0.00 21 1000.8
20260904223054 33 109 4.8 17.7 0.00 0.00 0.00 20 1000.7
20260904221559 33 134 11.3 22.5 0.00 0.00 0.00 20 1000.9
20260904220054 33 165 6.4 17.7 0.00 0.00 0.00 20 1000.9
20260904214551 33 183 11.3 19.3 0.00 0.00 0.00 20 1001.1
20260904213050 33 294 1.6 20.9 0.00 0.00 0.00 20 1001.0
20260904211553 32 43 4.8 12.9 0.00 0.00 0.00 21 1001.3
20260904210049 32 51 4.8 16.1 0.00 0.00 0.00 21 1001.4
20260904204548 32 92 9.7 30.6 0.00 0.00 0.00 21 1001.5
20260904203050 33 38 8.0 17.7 0.00 0.00 0.00 21 1001.8
20260904201546 32 82 11.3 17.7 0.00 0.00 0.00 21 1001.9
20260904200052 32 78 9.7 20.9 0.00 0.00 0.00 21 1002.0
20260904194545 32 67 8.0 17.7 0.00 0.00 0.00 21 1002.3
20260904193047 32 152 3.2 12.9 0.00 0.00 0.00 21 1002.4
20260904191544 32 170 8.0 19.3 0.00 0.00 0.00 21 1002.5
20260904190043 32 144 12.9 16.1 0.00 0.00 0.00 20 1002.7
20260904184558 32 190 8.0 14.5 0.00 0.00 0.00 21 1002.8
20260904183040 32 46 4.8 16.1 0.00 0.00 0.00 21 1003.0
20260904181541 31 76 3.2 12.9 0.00 0.00 0.00 21 1003.2
20260904180049 31 124 4.8 11.3 0.00 0.00 0.00 22 1003.3
20260904174539 31 167 4.8 11.3 0.00 0.00 0.00 22 1003.4
20260904173045 31 300 0.0 9.7 0.00 0.00 0.00 22 1003.7
20260904171532 31 149 0.0 9.7 0.00 0.00 0.00 23 1003.8
20260904170031 30 230 3.2 9.7 0.00 0.00 0.00 24 1003.9
20260904164529 29 258 0.0 6.4 0.00 0.00 0.00 24 1004.1
20260904163026 29 210 1.6 8.0 0.00 0.00 0.00 25 1004.2
20260904161521 28 191 3.2 6.4 0.00 0.00 0.00 26 1004.3
20260904160021 27 163 3.2 8.0 0.00 0.00 0.00 27 1004.3
20260904154516 26 177 1.6 6.4 0.00 0.00 0.00 27 1004.3
20260904153010 25 131 1.6 6.4 0.00 0.00 0.00 29 1004.4
20260904151507 24 206 3.2 8.0 0.00 0.00 0.00 29 1004.4
20260904150011 23 180 1.6 8.0 0.00 0.00 0.00 30 1004.4
20260904144558 22 149 4.8 8.0 0.00 0.00 0.00 34 1004.6